Lawrence, KS

6:43 PM CDT on April 29, 2017 (GMT -0500)
Lawrence Municipal

Weather History for KLWC - October, 2012

Change the Weather History Date:

Saturday, October 20, 2012

  Actual Average Record
Temperature  
Mean Temperature 53 °F 55 °F  
Max Temperature 73 °F 67 °F 89 °F (2003)
Min Temperature 32 °F 42 °F 25 °F (2011)
Degree Days  
Heating Degree Days 12 11  
Month to date heating degree days 233 160  
Since 1 July heating degree days 306 223  
Cooling Degree Days 0 0  
Month to date cooling degree days 8 24  
Year to date cooling degree days 1740 1368  
Growing Degree Days 2 (Base 50)    
Moisture  
Dew Point 37 °F    
Average Humidity 63    
Maximum Humidity 96    
Minimum Humidity 29    
Precipitation  
Precipitation 0.00 in 0.08 in 1.35 in (2005)
Month to date precipitation 0.88 2.09  
Year to date precipitation 19.01 34.11  
Sea Level Pressure  
Sea Level Pressure 29.81 in    
Wind  
Wind Speed 7 mph (ESE)    
Max Wind Speed 17 mph    
Max Gust Speed 24 mph    
Visibility 7 miles    
Events Fog    
T = Trace of Precipitation, MM = Missing Value Source: NWS Daily Summary

Daily Weather History Graph

Daily Weather History Graph

Search for Another Location

Airport or City:

Trip Planner

Search our weather history database for the weather conditions in past years. The results will help you decide how hot, cold, wet, or windy it might be!

Date:

Astronomy

Oct. 20, 2012 Rise Set
Actual Time 7:36 AM CDT 6:34 PM CDT
Civil Twilight 7:08 AM CDT 7:01 PM CDT
Nautical Twilight 6:37 AM CDT 7:32 PM CDT
Astronomical Twilight 6:06 AM CDT 8:03 PM CDT
Moon 1:11 PM CDT (10/20) 11:22 PM CDT (10/20)
Length of Visible Light 11h 52m
Length of Day
10h 58m
Waxing Crescent, 34% of the Moon is Illuminated
Oct 20
Waxing Crescent
Oct 21
First Quarter
Oct 29
Full
Nov 6
Last Quarter
Nov 13
New

Hourly Weather History & Observations

Time (CDT) Temp. Windchill Dew Point Humidity Pressure Visibility Wind Dir Wind Speed Gust Speed Precip Events Conditions
1:52 AM 36.0 °F 33.3 °F 34.0 °F 93% 29.85 in 8.0 mi NNW 3.5 mph - N/A   Clear
2:52 AM 34.0 °F - 32.0 °F 92% 29.86 in 6.0 mi Calm Calm - N/A   Clear
3:52 AM 34.0 °F - 32.0 °F 92% 29.86 in 7.0 mi Calm Calm - N/A   Clear
4:52 AM 34.0 °F - 32.0 °F 92% 29.85 in 6.0 mi Calm Calm - N/A   Clear
5:52 AM 36.0 °F - 34.0 °F 93% 29.85 in 8.0 mi Calm Calm - N/A   Clear
6:52 AM 35.1 °F - 34.0 °F 96% 29.86 in 8.0 mi Calm Calm - N/A   Clear
7:28 AM 35.6 °F 31.7 °F 35.6 °F 100% 29.84 in 1.5 mi SE 4.6 mph - N/A   Clear
7:34 AM 33.8 °F 30.8 °F 33.8 °F 100% 29.84 in 0.5 mi ESE 3.5 mph - N/A Fog Fog
7:40 AM 33.8 °F - 30.2 °F 87% 29.84 in 1.0 mi Calm Calm - N/A   Clear
7:48 AM 33.8 °F 30.8 °F 30.2 °F 87% 29.84 in 0.5 mi East 3.5 mph - N/A Fog Fog
7:52 AM 34.0 °F - 30.9 °F 89% 29.85 in 0.5 mi Calm Calm - N/A Fog Fog
8:08 AM 35.6 °F 32.8 °F 33.8 °F 93% 29.84 in 1.0 mi East 3.5 mph - N/A   Clear
8:11 AM 35.6 °F 32.8 °F 35.6 °F 100% 29.84 in 3.0 mi East 3.5 mph - N/A   Clear
8:52 AM 45.0 °F 41.2 °F 41.0 °F 86% 29.86 in 8.0 mi ESE 6.9 mph - N/A   Clear
9:52 AM 51.1 °F - 43.0 °F 74% 29.86 in 9.0 mi SSE 4.6 mph - N/A   Clear
10:52 AM 57.9 °F - 43.0 °F 58% 29.85 in 10.0 mi SE 6.9 mph - N/A   Clear
11:52 AM 64.0 °F - 39.9 °F 41% 29.83 in 10.0 mi SE 9.2 mph - N/A   Clear
1:52 PM 71.1 °F - 37.9 °F 30% 29.76 in 10.0 mi SE 16.1 mph 24.2 mph N/A   Clear
2:52 PM 72.0 °F - 39.0 °F 30% 29.74 in 10.0 mi SE 15.0 mph 19.6 mph N/A   Clear
4:52 PM 72.0 °F - 41.0 °F 33% 29.72 in 10.0 mi SE 12.7 mph - N/A   Clear
5:52 PM 68.0 °F - 42.1 °F 39% 29.71 in 10.0 mi SE 10.4 mph - N/A   Clear
6:52 PM 61.0 °F - 43.0 °F 52% 29.72 in 10.0 mi East 9.2 mph - N/A   Clear
7:52 PM 62.1 °F - 43.0 °F 50% 29.75 in 10.0 mi East 8.1 mph - N/A   Clear
8:52 PM 53.1 °F - 43.0 °F 69% 29.75 in 10.0 mi ESE 8.1 mph - N/A   Clear
9:52 PM 55.0 °F - 43.0 °F 64% 29.74 in 10.0 mi ESE 5.8 mph - N/A   Clear
11:52 PM 57.0 °F - 44.1 °F 62% 29.74 in 10.0 mi East 8.1 mph - N/A   Clear